Location: Härggis
(46.9540°N, 8.4897°E)
Time: 02:52:04
(UTC+00:00)

USA 306 - Pass Details

Date: 27 May 2022
Orbit: 545 x 556 km, 54.0° (Epoch: 20 June)

Event Time Altitude Azimuth Distance (km) Brightness Sun altitude
Exits shadow 01:38:03 - 271° (W) 1,882 5.2 -15.3°
Reaches altitude 10° 01:38:11 10° 272° (W) 1,836 5.2 -15.3°
Maximum altitude 01:42:08 40° 343° (NNW) 827 4.0 -14.9°
Drops below altitude 10° 01:46:07 10° 54° (NE) 1,850 6.7 -14.5°
Sets 01:48:28 0° 62° (ENE) 2,749 7.6 -14.3°
